QPF
0.00 0.00 0.00 0.00 0.00 0.00 0.00 0.00 0.00 0.00 0.00 0.00 0.00 0.00 0.00 0.00 0.00 0.00 0.00 0.00 0.00 0.00 0.00 0.00 0.00 0.00 0.00 0.00 0.00 0.00 0.00 0.00 0.00 0.00 0.00 0.00 0.00 0.00 0.00 0.00 0.00 0.00 0.00 0.00
0.00 0.00 0.00 0.00 0.00 0.00 0.00 0.00 0.00 0.00 0.00 0.00 0.00 0.00 0.00 0.00 0.00 0.00 0.00 0.00 0.01 0.00 0.00 0.00 0.00 0.00 0.00 0.00 0.00 0.00 0.00 0.00 0.00 0.00 0.00 0.00 0.00 0.00 0.00 0.00 0.00 0.00 0.00 0.00
0.00 0.00 0.00 0.00 0.00 0.00 0.00 0.00 0.00 0.00 0.00 0.00 0.00 0.00 0.00 0.00 0.00 0.00 0.00 0.00 0.01 0.00 0.00 0.00 0.00 0.00 0.00 0.00 0.00 0.00 0.00 0.00 0.00 0.00 0.00 0.00 0.00 0.00 0.00 0.00 0.00 0.00 0.00 0.00
0.00 0.00 0.00 0.00 0.00 0.00 0.00 0.00 0.00 0.00 0.00 0.00 0.00 0.00 0.00 0.02 0.02 0.00 0.00 0.00 0.00 0.00 0.00 0.00 0.00 0.00 0.00 0.00 0.00 0.00 0.00 0.00 0.00 0.00 0.00 0.00 0.00 0.00 0.00 0.00 0.00 0.00 0.00 0.00
0.00 0.00 0.00 0.00 0.00 0.00 0.00 0.00 0.00 0.00 0.00 0.00 0.01 0.00 0.03 0.00 0.01 0.00 0.00 0.00 0.00 0.00 0.00 0.00 0.00 0.00 0.00 0.00 0.00 0.00 0.00 0.00 0.00 0.00 0.00 0.00 0.00 0.00 0.00 0.00 0.00 0.00 0.00 0.00
0.00 0.00 0.00 0.00 0.00 0.00 0.00 0.00 0.00 0.00 0.01 0.00 0.01 0.01 0.02 0.00 0.00 0.00 0.00 0.00 0.00 0.00 0.00 0.00 0.00 0.00 0.00 0.00 0.00 0.00 0.00 0.00 0.00 0.00 0.00 0.00 0.00 0.00 0.00 0.00 0.00 0.00 0.00 0.00
0.00 0.00 0.00 0.00 0.00 0.00 0.00 0.00 0.00 0.00 0.01 0.00 0.00 0.00 0.02 0.01 0.00 0.00 0.00 0.00 0.00 0.00 0.00 0.00 0.00 0.00 0.00 0.00 0.00 0.00 0.00 0.00 0.00 0.00 0.00 0.00 0.00 0.00 0.00 0.00 0.01 0.01 0.00 0.00
0.00 0.00 0.00 0.00 0.00 0.00 0.00 0.00 0.00 0.00 0.00 0.00 0.00 0.00 0.00 0.01 0.00 0.00 0.00 0.00 0.00 0.00 0.00 0.00 0.00 0.00 0.00 0.00 0.00 0.00 0.00 0.00 0.00 0.00 0.00 0.00 0.01 0.02 0.00 0.01 0.03 0.05 0.01 0.01
0.00 0.00 0.00 0.00 0.00 0.00 0.00 0.00 0.00 0.00 0.00 0.00 0.01 0.01 0.00 0.02 0.00 0.00 0.00 0.00 0.00 0.00 0.00 0.00 0.00 0.00 0.00 0.00 0.00 0.00 0.00 0.00 0.00 0.00 0.00 0.01 0.04 0.08 0.04 0.07 0.08 0.04 0.03 0.05
0.00 0.00 0.00 0.00 0.00 0.00 0.00 0.00 0.00 0.00 0.00 0.00 0.00 0.01 0.00 0.00 0.01 0.00 0.00 0.00 0.00 0.00 0.00 0.00 0.00 0.00 0.00 0.00 0.00 0.00 0.00 0.00 0.00 0.00 0.01 0.03 0.10 0.05 0.10 0.13 0.10 0.09 0.08 0.03
0.00 0.00 0.00 0.00 0.00 0.00 0.00 0.00 0.00 0.00 0.00 0.01 0.00 0.00 0.00 0.01 0.03 0.01 0.00 0.00 0.00 0.00 0.00 0.00 0.00 0.00 0.00 0.00 0.00 0.00 0.00 0.00 0.00 0.00 0.00 0.01 0.04 0.04 0.08 0.11 0.11 0.17 0.04 0.03
0.00 0.00 0.00 0.00 0.00 0.00 0.00 0.00 0.00 0.00 0.00 0.00 0.00 0.00 0.01 0.01 0.01 0.00 0.00 0.00 0.00 0.00 0.00 0.00 0.00 0.00 0.00 0.00 0.00 0.00 0.00 0.00 0.00 0.00 0.00 0.00 0.00 0.01 0.05 0.10 0.03 0.07 0.03 0.06
0.00 0.00 0.00 0.00 0.00 0.00 0.00 0.00 0.00 0.00 0.00 0.00 0.00 0.00 0.01 0.03 0.01 0.00 0.00 0.00 0.00 0.00 0.00 0.00 0.00 0.00 0.00 0.00 0.00 0.00 0.00 0.00 0.00 0.00 0.00 0.00 0.00 0.01 0.03 0.05 0.04 0.07 0.05 0.05
0.00 0.00 0.00 0.00 0.00 0.00 0.00 0.00 0.00 0.00 0.00 0.00 0.00 0.00 0.00 0.02 0.00 0.00 0.00 0.00 0.00 0.00 0.00 0.00 0.00 0.00 0.00 0.00 0.00 0.00 0.00 0.00 0.00 0.00 0.00 0.00 0.00 0.00 0.02 0.04 0.05 0.08 0.05 0.08
0.00 0.00 0.00 0.00 0.00 0.00 0.00 0.00 0.00 0.00 0.00 0.00 0.00 0.00 0.00 0.00 0.02 0.01 0.00 0.00 0.00 0.00 0.00 0.00 0.00 0.00 0.00 0.00 0.00 0.00 0.00 0.00 0.00 0.00 0.00 0.00 0.00 0.00 0.00 0.01 0.04 0.05 0.03 0.02
0.00 0.00 0.00 0.00 0.00 0.00 0.00 0.00 0.00 0.00 0.00 0.00 0.00 0.00 0.00 0.00 0.04 0.03 0.01 0.00 0.00 0.00 0.00 0.00 0.00 0.00 0.00 0.00 0.00 0.00 0.00 0.00 0.00 0.00 0.00 0.00 0.00 0.00 0.00 0.00 0.00 0.01 0.01 0.00
0.00 0.00 0.00 0.00 0.00 0.00 0.00 0.00 0.00 0.00 0.00 0.00 0.00 0.00 0.01 0.03 0.00 0.01 0.00 0.00 0.00 0.00 0.00 0.00 0.00 0.00 0.00 0.00 0.00 0.00 0.00 0.00 0.00 0.00 0.00 0.00 0.00 0.00 0.00 0.00 0.00 0.00 0.00 0.00
0.00 0.00 0.00 0.00 0.00 0.00 0.00 0.01 0.01 0.00 0.00 0.00 0.00 0.00 0.00 0.00 0.00 0.00 0.00 0.00 0.00 0.00 0.00 0.00 0.00 0.00 0.00 0.00 0.00 0.00 0.00 0.00 0.00 0.00 0.00 0.00 0.00 0.00 0.00 0.00 0.00 0.00 0.00 0.00
0.00 0.00 0.00 0.00 0.00 0.00 0.00 0.01 0.00 0.00 0.00 0.00 0.00 0.00 0.00 0.00 0.00 0.00 0.00 0.00 0.01 0.00 0.00 0.00 0.00 0.00 0.00 0.00 0.00 0.00 0.00 0.00 0.00 0.00 0.00 0.00 0.00 0.00 0.00 0.00 0.00 0.00 0.00 0.00
0.00 0.00 0.00 0.00 0.00 0.00 0.00 0.00 0.00 0.00 0.00 0.00 0.00 0.00 0.00 0.00 0.00 0.00 0.00 0.00 0.00 0.00 0.00 0.00 0.00 0.00 0.00 0.00 0.00 0.00 0.00 0.00 0.00 0.00 0.00 0.00 0.00 0.00 0.00 0.00 0.00 0.00 0.00 0.00
0.01 0.01 0.00 0.00 0.00 0.00 0.00 0.00 0.00 0.00 0.00 0.00 0.00 0.02 0.01 0.00 0.00 0.00 0.00 0.00 0.00 0.00 0.00 0.00 0.00 0.00 0.00 0.00 0.00 0.00 0.00 0.00 0.00 0.00 0.00 0.00 0.00 0.00 0.00 0.00 0.00 0.00 0.00 0.00
0.00 0.00 0.00 0.00 0.00 0.00 0.00 0.00 0.00 0.00 0.00 0.00 0.00 0.00 0.00 0.00 0.00 0.00 0.00 0.00 0.00 0.00 0.00 0.00 0.00 0.00 0.00 0.00 0.00 0.00 0.00 0.00 0.00 0.00 0.00 0.00 0.00 0.00 0.00 0.00 0.00 0.00 0.00 0.00
0.00 0.00 0.00 0.00 0.00 0.00 0.00 0.00 0.00 0.00 0.00 0.00 0.00 0.00 0.00 0.00 0.00 0.00 0.00 0.00 0.00 0.00 0.00 0.00 0.00 0.00 0.00 0.00 0.00 0.00 0.00 0.00 0.00 0.00 0.00 0.00 0.00 0.00 0.00 0.00 0.00 0.00 0.01 0.00
0.00 0.00 0.00 0.00 0.00 0.00 0.00 0.00 0.00 0.00 0.00 0.00 0.00 0.00 0.00 0.00 0.00 0.00 0.00 0.00 0.01 0.00 0.00 0.00 0.00 0.00 0.00 0.00 0.00 0.00 0.00 0.00 0.00 0.00 0.00 0.00 0.00 0.00 0.00 0.00 0.00 0.00 0.00 0.00
0.00 0.00 0.00 0.00 0.00 0.00 0.00 0.00 0.00 0.00 0.00 0.00 0.00 0.00 0.00 0.00 0.00 0.00 0.00 0.00 0.00 0.00 0.00 0.00 0.00 0.00 0.00 0.00 0.00 0.00 0.00 0.00 0.00 0.00 0.00 0.00 0.01 0.01 0.00 0.00 0.00 0.00 0.00 0.00
0.00 0.00 0.00 0.00 0.00 0.00 0.00 0.00 0.00 0.00 0.00 0.00 0.00 0.00 0.00 0.00 0.00 0.00 0.00 0.00 0.00 0.00 0.00 0.00 0.00 0.00 0.00 0.01 0.02 0.00 0.00 0.00 0.00 0.01 0.02 0.01 0.00 0.00 0.00 0.00 0.00 0.00 0.00 0.00
MSLP
1001.33 1001.02 1001.07 1001.27 1000.92 1000.89 1000.88 1000.68 1000.77 1001.61 1002.27 1002.91 1003.34 1003.88 1003.41 1003.29 1004.39 1004.23 1004.43 1004.66 1004.70 1004.50 1005.42 1006.44 1007.13 1007.87 1008.68 1009.09 1009.33 1009.58 1009.94 1010.35 1010.85 1011.47 1012.17 1012.43 1012.33 1012.33 1012.59 1012.70 1012.95 1013.12 1013.55 1013.87
1001.27 1000.42 1001.37 1001.05 1000.77 1000.48 1000.31 1000.10 1000.43 1000.35 1000.67 1001.78 1003.42 1004.87 1006.24 1006.86 1006.34 1004.92 1004.67 1004.78 1004.95 1004.61 1004.80 1005.76 1006.68 1007.53 1008.32 1009.21 1009.66 1009.99 1010.27 1010.68 1011.08 1011.50 1011.69 1011.80 1011.79 1011.92 1012.25 1012.44 1012.57 1012.83 1013.31 1013.80
1000.93 1000.70 1000.95 1001.01 1000.51 1000.15 999.89 999.76 1000.07 1000.59 1001.03 1001.62 1004.10 1007.24 1008.85 1010.16 1008.78 1007.67 1005.95 1004.87 1004.50 1004.57 1004.70 1005.26 1005.95 1006.86 1007.74 1008.71 1009.51 1010.01 1010.34 1010.73 1011.19 1011.35 1011.47 1011.72 1012.07 1012.25 1012.51 1012.64 1012.67 1012.90 1013.21 1013.52
1000.67 1000.19 1000.02 1000.12 1000.35 1000.11 999.78 999.99 1000.65 1001.23 1002.29 1004.59 1006.89 1009.23 1011.24 1011.46 1009.41 1007.73 1009.70 1006.13 1004.31 1004.32 1004.66 1004.81 1005.34 1005.97 1006.99 1007.99 1008.82 1009.45 1010.08 1010.62 1011.22 1011.53 1011.52 1011.72 1012.29 1012.43 1012.37 1012.43 1012.51 1012.70 1012.84 1013.29
1000.91 1000.26 999.94 999.82 999.93 1000.04 1000.41 1000.67 1001.17 1002.26 1003.47 1006.14 1007.56 1009.95 1012.58 1012.23 1010.27 1007.91 1006.68 1004.76 1004.22 1003.96 1004.08 1004.29 1004.65 1005.22 1006.01 1007.09 1008.21 1009.16 1010.03 1010.66 1011.22 1011.59 1011.83 1012.09 1012.31 1012.52 1012.24 1012.44 1012.55 1012.44 1012.73 1013.02
1000.94 1000.42 1000.30 1000.11 1000.26 1000.29 1000.55 1000.75 1001.24 1003.54 1005.43 1007.29 1007.88 1010.17 1013.04 1011.57 1010.01 1008.32 1005.52 1004.76 1004.09 1003.30 1003.49 1004.02 1004.71 1005.35 1006.04 1006.76 1007.77 1008.75 1009.69 1010.51 1011.17 1011.57 1011.99 1012.31 1012.46 1012.47 1012.51 1012.61 1012.74 1012.49 1012.61 1012.80
1000.86 1000.17 999.95 999.85 1000.19 1000.02 1000.09 1000.51 1001.16 1002.87 1005.74 1006.76 1007.13 1009.40 1010.50 1009.23 1008.83 1007.78 1005.08 1004.23 1003.88 1003.45 1003.72 1004.37 1005.24 1005.90 1006.63 1007.48 1008.18 1008.28 1008.98 1009.94 1010.66 1011.36 1011.75 1012.08 1012.46 1012.56 1012.69 1012.76 1012.82 1012.63 1012.43 1012.35
1000.43 999.81 1000.02 999.77 1000.35 1000.32 1000.61 1000.96 1001.73 1002.58 1003.91 1005.29 1007.35 1011.23 1011.40 1010.35 1009.58 1007.80 1004.56 1004.04 1003.99 1004.09 1004.61 1004.84 1005.59 1006.37 1006.83 1007.52 1008.28 1008.50 1008.75 1009.45 1010.16 1010.60 1011.11 1011.51 1011.98 1012.26 1012.35 1012.58 1012.57 1012.60 1012.27 1012.19
1000.71 999.79 999.86 1000.15 1000.43 1000.69 1000.60 1001.21 1001.73 1002.91 1003.46 1005.21 1009.26 1012.93 1012.41 1012.54 1009.98 1006.09 1004.12 1003.81 1004.21 1004.43 1004.85 1005.03 1005.75 1006.51 1007.08 1007.61 1008.14 1008.57 1008.98 1009.05 1009.79 1010.55 1011.04 1011.32 1011.58 1011.85 1012.18 1012.13 1012.45 1012.25 1011.95 1011.89
1001.15 1000.97 1000.23 1000.37 1000.68 1000.64 1000.80 1001.26 1002.01 1003.19 1004.10 1005.96 1010.19 1010.99 1010.78 1010.93 1009.93 1006.76 1005.44 1004.16 1003.96 1004.13 1004.57 1005.09 1005.62 1006.51 1007.15 1007.64 1008.13 1008.73 1009.11 1009.37 1010.30 1010.73 1010.95 1011.19 1011.47 1011.57 1011.90 1012.01 1011.95 1011.75 1011.58 1011.63
1001.58 1001.76 1001.43 1000.90 1000.47 1000.05 1000.42 1001.06 1002.20 1003.09 1004.69 1006.31 1007.94 1009.22 1010.17 1010.44 1009.18 1007.38 1006.06 1003.99 1003.72 1003.83 1004.63 1005.13 1005.65 1006.40 1007.10 1007.81 1008.42 1008.90 1009.38 1009.83 1010.36 1010.59 1010.77 1010.72 1010.90 1010.99 1011.23 1011.54 1011.51 1011.51 1011.53 1011.56
1001.60 1002.19 1002.13 1001.63 1001.17 1001.06 1001.47 1001.96 1001.98 1002.67 1003.97 1005.12 1006.83 1007.87 1007.98 1007.80 1008.27 1005.80 1005.46 1003.83 1004.19 1004.25 1004.67 1005.10 1005.78 1006.43 1007.28 1008.04 1008.71 1009.12 1009.78 1010.23 1010.40 1010.41 1010.10 1010.50 1010.64 1010.74 1010.80 1011.11 1011.10 1011.25 1011.33 1011.34
1002.43 1002.61 1002.74 1002.01 1001.45 1001.47 1001.74 1002.10 1002.40 1001.79 1002.78 1003.45 1004.09 1005.59 1006.70 1007.54 1006.72 1005.73 1003.71 1003.27 1004.20 1004.57 1004.87 1005.22 1005.92 1006.60 1007.51 1008.22 1008.80 1009.36 1010.08 1010.35 1010.37 1010.36 1010.32 1010.75 1010.64 1010.71 1010.76 1010.85 1010.87 1011.07 1011.21 1011.29
1003.49 1003.31 1002.99 1002.25 1001.67 1001.19 1001.18 1001.16 1000.95 1001.28 1002.04 1002.24 1002.70 1003.63 1005.39 1007.27 1006.97 1007.33 1003.64 1003.37 1003.88 1004.09 1004.92 1005.33 1006.01 1006.84 1007.71 1008.41 1008.91 1009.45 1010.09 1010.39 1010.43 1010.30 1010.24 1010.49 1010.59 1010.63 1010.63 1010.71 1010.83 1010.93 1011.09 1011.20
1003.99 1003.80 1003.35 1002.55 1001.76 1001.00 1000.71 1000.89 1000.93 1000.89 1001.17 1001.57 1002.05 1003.27 1004.93 1006.19 1007.67 1006.74 1000.61 1003.81 1004.10 1003.64 1004.53 1005.37 1006.21 1007.20 1007.89 1008.62 1009.01 1009.51 1010.07 1010.39 1010.56 1010.36 1010.13 1010.31 1010.56 1010.76 1010.90 1010.96 1010.97 1010.91 1010.87 1010.94
1003.94 1003.99 1003.59 1002.89 1002.10 1001.53 1001.17 1001.01 1001.26 1001.09 1001.18 1001.45 1002.19 1002.87 1004.71 1004.68 1003.83 1006.01 1004.59 1002.93 1002.56 1003.13 1004.29 1005.57 1006.47 1007.29 1008.17 1008.73 1009.08 1009.46 1009.93 1010.30 1010.49 1010.40 1010.22 1010.26 1010.52 1010.79 1010.96 1011.07 1011.05 1010.93 1010.93 1010.97
1003.54 1003.75 1003.53 1002.84 1002.33 1002.03 1002.21 1002.58 1003.20 1001.93 1001.77 1002.36 1002.41 1002.99 1003.60 1003.06 1004.25 1004.56 1004.21 1003.08 1003.01 1002.41 1004.10 1005.67 1006.44 1007.36 1008.23 1008.65 1008.86 1009.33 1009.60 1009.94 1010.10 1010.19 1010.10 1010.17 1010.33 1010.61 1010.88 1011.11 1011.30 1011.34 1011.35 1011.19
1003.57 1003.77 1003.99 1003.54 1003.29 1002.70 1003.12 1004.12 1005.13 1003.93 1003.15 1002.30 1002.41 1002.43 1002.57 1003.80 1003.53 1006.01 1004.50 1002.93 1003.50 1003.25 1004.17 1005.53 1006.30 1007.21 1008.05 1008.45 1008.75 1009.25 1009.47 1009.50 1009.79 1009.78 1010.11 1010.15 1010.14 1010.31 1010.59 1010.84 1011.18 1011.35 1011.37 1011.37
1003.45 1004.35 1004.55 1004.47 1004.00 1003.36 1003.37 1006.72 1008.14 1004.88 1003.49 1002.84 1003.46 1003.76 1002.67 1001.61 1001.75 1002.88 1002.21 1002.76 1003.06 1003.76 1004.57 1005.46 1006.15 1007.09 1007.99 1008.36 1008.68 1009.09 1009.21 1009.35 1009.51 1009.65 1010.13 1010.25 1010.06 1010.35 1010.58 1010.75 1011.07 1011.23 1011.19 1011.09
1002.99 1004.04 1004.99 1005.41 1005.00 1004.39 1004.47 1004.81 1005.05 1004.97 1003.34 1003.75 1004.60 1005.27 1006.75 1003.44 1001.79 1002.01 1002.70 1002.55 1003.23 1003.85 1004.70 1005.13 1005.73 1006.87 1007.76 1008.17 1008.51 1008.86 1008.95 1009.17 1009.06 1009.18 1009.66 1009.80 1009.87 1010.28 1010.64 1010.74 1010.99 1011.13 1011.09 1010.98
1003.15 1004.25 1005.72 1007.01 1005.39 1004.51 1004.46 1005.18 1003.97 1003.35 1004.11 1003.98 1004.27 1004.74 1004.91 1003.61 1002.43 1002.35 1002.45 1002.75 1003.22 1003.70 1004.11 1004.58 1005.45 1006.41 1007.22 1007.84 1008.27 1008.59 1008.74 1008.65 1008.66 1009.04 1009.34 1009.35 1009.38 1009.85 1010.25 1010.41 1010.89 1011.01 1010.81 1010.76
1003.04 1005.18 1007.15 1008.98 1006.54 1004.73 1004.34 1003.77 1004.53 1004.03 1003.67 1003.68 1003.51 1003.35 1003.27 1002.73 1002.11 1002.02 1002.30 1002.53 1002.65 1003.68 1004.77 1005.57 1005.63 1005.49 1006.60 1007.41 1007.92 1008.11 1008.17 1008.25 1008.53 1008.96 1009.15 1009.29 1009.36 1009.78 1010.02 1010.28 1010.47 1010.61 1010.79 1010.59
1002.09 1003.05 1005.26 1006.51 1006.26 1004.47 1003.76 1003.51 1003.63 1002.88 1003.11 1003.43 1003.40 1003.26 1003.05 1002.78 1002.23 1001.97 1001.97 1002.03 1002.22 1002.68 1002.61 1004.08 1004.62 1004.52 1005.46 1006.44 1007.16 1007.59 1007.75 1008.04 1008.24 1008.70 1008.91 1009.15 1009.42 1009.64 1010.09 1010.19 1010.25 1010.28 1010.29 1010.38
1001.96 1004.17 1004.40 1004.28 1003.81 1003.77 1002.87 1002.51 1002.22 1002.87 1003.28 1003.29 1003.23 1003.16 1002.97 1002.66 1002.48 1002.20 1002.07 1002.01 1002.00 1002.20 1002.56 1002.78 1003.09 1003.33 1004.23 1005.25 1006.24 1007.01 1007.46 1007.79 1008.12 1008.51 1008.82 1009.09 1009.45 1009.65 1009.68 1009.84 1009.77 1009.91 1009.86 1009.97
1002.95 1004.56 1006.20 1003.81 1003.99 1004.74 1005.04 1002.98 1003.32 1003.20 1003.13 1003.12 1003.08 1003.12 1002.84 1002.65 1002.53 1002.35 1002.19 1002.03 1001.93 1001.87 1001.88 1001.95 1002.26 1002.78 1003.29 1003.91 1004.99 1006.07 1006.91 1007.54 1008.05 1008.53 1009.37 1009.52 1010.08 1010.27 1010.27 1009.54 1009.38 1009.28 1009.45 1009.53
1002.43 1002.92 1003.73 1003.61 1003.65 1003.20 1002.84 1003.00 1003.56 1003.38 1003.31 1003.13 1003.07 1002.85 1003.04 1003.15 1002.89 1002.56 1002.29 1002.11 1001.98 1001.83 1001.79 1001.79 1001.85 1001.95 1002.07 1001.63 1002.43 1004.75 1006.12 1006.98 1007.79 1009.42 1010.39 1010.47 1010.27 1010.19 1009.71 1009.40 1009.19 1009.21 1009.19 1009.38
Thickness
5875 5858 5843 5853 5875 5874 5869 5867 5859 5852 5855 5829 5839 5835 5838 5826 5833 5832 5830 5828 5829 5831 5831 5828 5825 5819 5810 5805 5799 5793 5785 5778 5769 5755 5741 5733 5730 5727 5719 5713 5706 5700 5691 5688
5860 5856 5863 5874 5877 5872 5869 5862 5853 5872 5883 5861 5836 5817 5815 5804 5811 5833 5829 5827 5827 5832 5832 5828 5823 5818 5810 5800 5794 5788 5781 5773 5764 5753 5744 5738 5731 5727 5721 5715 5708 5698 5689 5685
5849 5862 5876 5866 5865 5861 5865 5861 5856 5849 5865 5869 5829 5778 5769 5771 5789 5802 5826 5833 5835 5833 5827 5823 5823 5817 5812 5800 5792 5785 5778 5770 5760 5753 5746 5737 5729 5722 5713 5708 5703 5696 5687 5684
5864 5886 5877 5868 5856 5866 5845 5873 5859 5848 5832 5778 5802 5747 5742 5753 5782 5796 5753 5766 5832 5831 5830 5828 5823 5819 5814 5806 5798 5789 5777 5767 5757 5748 5741 5732 5721 5713 5713 5710 5705 5697 5689 5685
5849 5864 5867 5861 5862 5870 5846 5866 5851 5839 5822 5790 5775 5756 5736 5746 5757 5784 5800 5831 5834 5835 5831 5828 5827 5825 5819 5811 5802 5791 5777 5765 5754 5744 5736 5728 5718 5714 5712 5706 5701 5698 5690 5685
5858 5886 5873 5866 5871 5870 5870 5855 5851 5819 5794 5750 5764 5747 5713 5749 5766 5776 5825 5830 5832 5839 5837 5835 5831 5825 5816 5810 5800 5788 5775 5761 5751 5742 5732 5723 5716 5711 5705 5701 5695 5694 5690 5685
5849 5859 5877 5882 5853 5870 5865 5844 5809 5796 5759 5752 5797 5765 5757 5784 5789 5795 5824 5828 5834 5840 5835 5828 5821 5815 5809 5801 5790 5786 5776 5763 5753 5741 5732 5724 5715 5710 5703 5698 5693 5693 5691 5687
5827 5820 5856 5877 5855 5843 5845 5839 5807 5773 5779 5792 5797 5722 5752 5766 5779 5789 5839 5836 5834 5830 5826 5822 5818 5809 5805 5800 5792 5785 5776 5765 5756 5745 5735 5728 5718 5712 5706 5699 5695 5691 5692 5687
5825 5838 5872 5869 5869 5860 5840 5821 5846 5805 5820 5796 5760 5713 5738 5744 5761 5805 5832 5828 5823 5822 5820 5818 5813 5808 5801 5794 5789 5781 5773 5767 5755 5742 5733 5726 5720 5713 5706 5703 5696 5694 5694 5693
5843 5813 5862 5862 5864 5864 5847 5854 5808 5806 5770 5758 5713 5729 5740 5760 5762 5798 5774 5818 5820 5822 5818 5815 5810 5804 5799 5793 5786 5779 5771 5763 5748 5739 5733 5726 5719 5714 5708 5702 5698 5696 5696 5693
5847 5829 5829 5851 5843 5843 5844 5833 5823 5816 5789 5754 5737 5751 5775 5769 5772 5780 5785 5821 5821 5820 5814 5812 5807 5803 5799 5791 5781 5774 5764 5754 5745 5739 5732 5728 5723 5718 5712 5705 5701 5697 5694 5692
5851 5827 5804 5821 5854 5857 5841 5821 5828 5794 5780 5784 5759 5759 5789 5785 5771 5793 5786 5822 5821 5817 5813 5812 5805 5800 5792 5783 5775 5767 5757 5748 5742 5738 5736 5728 5723 5718 5713 5707 5703 5698 5694 5692
5839 5814 5787 5805 5833 5840 5824 5824 5814 5833 5816 5792 5784 5770 5781 5780 5778 5777 5821 5822 5811 5809 5809 5807 5801 5793 5785 5777 5770 5761 5751 5744 5741 5736 5731 5723 5720 5715 5710 5706 5703 5698 5693 5689
5832 5815 5803 5789 5808 5833 5816 5826 5840 5831 5797 5802 5807 5813 5800 5768 5758 5759 5817 5817 5810 5808 5804 5800 5796 5789 5780 5772 5765 5757 5748 5742 5737 5734 5730 5721 5716 5713 5709 5705 5701 5697 5691 5685
5820 5795 5809 5819 5830 5840 5839 5832 5836 5829 5829 5806 5813 5810 5797 5792 5761 5741 5812 5811 5805 5805 5801 5795 5788 5782 5776 5766 5760 5754 5744 5737 5732 5728 5726 5720 5715 5708 5703 5699 5695 5692 5689 5685
5821 5792 5806 5801 5824 5829 5823 5836 5834 5833 5831 5825 5816 5809 5801 5804 5810 5771 5781 5810 5809 5802 5797 5790 5784 5778 5768 5762 5756 5749 5740 5733 5729 5723 5720 5716 5710 5703 5697 5692 5689 5687 5683 5679
5811 5803 5795 5784 5816 5814 5792 5808 5777 5814 5822 5808 5794 5809 5808 5805 5794 5788 5792 5806 5805 5803 5795 5785 5780 5772 5764 5759 5755 5744 5739 5733 5726 5719 5716 5711 5705 5698 5691 5686 5680 5675 5671 5669
5804 5802 5797 5782 5795 5761 5801 5799 5789 5792 5798 5823 5820 5820 5815 5794 5803 5761 5792 5802 5798 5799 5792 5784 5779 5771 5763 5759 5752 5744 5737 5731 5723 5718 5710 5705 5701 5695 5688 5681 5673 5668 5664 5659
5819 5799 5781 5772 5776 5799 5818 5754 5723 5771 5796 5816 5801 5794 5817 5828 5825 5808 5819 5815 5805 5797 5790 5785 5781 5772 5761 5755 5748 5739 5732 5726 5719 5711 5702 5697 5696 5687 5681 5675 5668 5662 5658 5655
5818 5809 5786 5777 5758 5754 5787 5783 5786 5792 5778 5804 5779 5763 5749 5791 5791 5792 5803 5802 5800 5796 5790 5784 5778 5767 5757 5750 5744 5733 5727 5720 5715 5710 5700 5695 5690 5682 5673 5668 5662 5657 5652 5646
5771 5744 5726 5733 5766 5788 5792 5779 5803 5769 5766 5801 5789 5774 5767 5784 5801 5807 5810 5803 5801 5793 5789 5785 5775 5763 5754 5746 5738 5727 5721 5715 5714 5705 5696 5690 5686 5676 5669 5663 5654 5648 5643 5638
5781 5745 5718 5709 5740 5760 5796 5795 5762 5784 5800 5800 5803 5804 5799 5804 5808 5806 5802 5799 5798 5786 5777 5770 5764 5760 5754 5745 5733 5723 5716 5716 5710 5700 5692 5685 5677 5668 5661 5653 5647 5640 5633 5626
5789 5800 5751 5732 5743 5784 5798 5791 5790 5805 5797 5797 5796 5800 5800 5797 5801 5804 5801 5796 5792 5785 5741 5770 5763 5757 5748 5741 5731 5718 5714 5710 5703 5692 5684 5678 5670 5660 5652 5644 5638 5632 5627 5619
5806 5779 5779 5782 5798 5793 5804 5809 5805 5797 5790 5795 5795 5793 5794 5790 5794 5794 5795 5792 5782 5787 5776 5775 5766 5760 5749 5739 5728 5719 5712 5705 5696 5687 5678 5671 5659 5651 5646 5638 5634 5626 5620 5612
5778 5755 5711 5772 5776 5754 5755 5791 5783 5788 5792 5789 5791 5787 5787 5787 5784 5786 5785 5785 5784 5781 5779 5775 5765 5754 5746 5739 5725 5716 5705 5696 5686 5678 5663 5653 5641 5632 5626 5632 5628 5624 5618 5608
5791 5778 5761 5749 5775 5770 5777 5780 5780 5778 5776 5781 5777 5777 5780 5776 5773 5777 5776 5779 5777 5775 5774 5768 5762 5753 5746 5741 5728 5711 5699 5689 5676 5654 5641 5632 5631 5624 5625 5622 5620 5615 5609 5600